Location: Inglewood
(33.9617°N, 118.3531°W)
Time: 03:13:36
(UTC+00:00)

H-2A R/B - Pass Details

Date: 03 August 2024
Orbit: 731 x 832 km, 98.2° (Epoch: 13 September)

Event Time Altitude Azimuth Distance (km) Brightness Sun altitude
Rises 12:16:57 0° 8° (N) 3,166 5.8 -10.2°
Reaches altitude 10° 12:19:14 10° 6° (N) 2,246 4.9 -9.8°
Maximum altitude 12:24:06 65° 285° (WNW) 819 2.0 -8.9°
Drops below altitude 10° 12:29:02 10° 204° (SSW) 2,277 4.0 -8.0°
Enters shadow 12:31:21 - 201° (SSW) 3,208 4.8 -7.6°
